VCP71 ENKB-EPWA

Flight info

Callsign VCP71
Flight time 2h 2m
Altitude 35000
Route BAMVA DCT OGPAL DCT NIBNO DCT MOKNI DCT PENOR N133 GRUDA N191 SORIX
Aircraft B739/M-SDE2E3FGHIRWXY/LB1

Departure

Time 2026-04-12 03:22
Airport Kristiansund Airport, Kvernberget (ENKB)

Arrival

Time 2026-04-12 05:24
Airport Warsaw Chopin Airport (EPWA)
Time Latitude Longitude Altitude Speed Heading
2026-04-12 03:06 63.11347 7.82618 206 ft 0 kts 341°
2026-04-12 03:14 63.11344 7.82620 205 ft 2 kts 341°
2026-04-12 03:15 63.11335 7.82627 205 ft 2 kts 340°
2026-04-12 03:15 63.11323 7.82648 204 ft 2 kts 299°
2026-04-12 03:15 63.11319 7.82680 203 ft 2 kts 268°
2026-04-12 03:15 63.11323 7.82711 204 ft 2 kts 237°
2026-04-12 03:16 63.11328 7.82725 204 ft 1 kts 218°
2026-04-12 03:16 63.11332 7.82733 204 ft 0 kts 221°
2026-04-12 03:18 63.11329 7.82727 204 ft 3 kts 219°
2026-04-12 03:18 63.11274 7.82732 199 ft 11 kts 162°
2026-04-12 03:19 63.11209 7.82624 192 ft 15 kts 250°
2026-04-12 03:19 63.11167 7.82347 191 ft 21 kts 252°
2026-04-12 03:19 63.11114 7.81999 185 ft 25 kts 252°
2026-04-12 03:19 63.11058 7.81630 180 ft 26 kts 252°
2026-04-12 03:20 63.10997 7.81224 167 ft 28 kts 252°
2026-04-12 03:20 63.10950 7.80916 152 ft 10 kts 252°
2026-04-12 03:20 63.10940 7.80775 145 ft 9 kts 271°
2026-04-12 03:20 63.10915 7.80745 143 ft 4 kts 107°
2026-04-12 03:21 63.10921 7.80776 145 ft 1 kts 56°
2026-04-12 03:21 63.10939 7.80855 149 ft 10 kts 69°
2026-04-12 03:21 63.11050 7.81579 179 ft 89 kts 72°
2026-04-12 03:21 63.11328 7.83412 211 ft 161 kts 72°
2026-04-12 03:22 63.11706 7.85834 1051 ft 163 kts 76°
2026-04-12 03:22 63.11886 7.88275 1755 ft 170 kts 94°
2026-04-12 03:22 63.11873 7.90928 2302 ft 180 kts 92°
2026-04-12 03:22 63.11937 7.93754 2764 ft 195 kts 90°
2026-04-12 03:23 63.12051 7.96868 3283 ft 210 kts 90°
2026-04-12 03:23 63.12155 8.00024 4096 ft 210 kts 94°
2026-04-12 03:23 63.11921 8.03168 4757 ft 206 kts 119°
2026-04-12 03:23 63.11079 8.05630 5372 ft 208 kts 142°
2026-04-12 03:24 63.09878 8.07487 5838 ft 221 kts 152°
2026-04-12 03:24 63.08424 8.08798 6328 ft 232 kts 173°
2026-04-12 03:24 63.06817 8.08224 6810 ft 247 kts 203°
2026-04-12 03:24 63.05290 8.06572 7554 ft 250 kts 196°
2026-04-12 03:25 63.03553 8.06202 8300 ft 253 kts 176°
2026-04-12 03:25 63.01821 8.06744 9058 ft 257 kts 171°
2026-04-12 03:25 63.00068 8.07442 9790 ft 260 kts 171°
2026-04-12 03:25 62.98268 8.08124 10328 ft 270 kts 172°
2026-04-12 03:26 62.96391 8.08779 10749 ft 284 kts 172°
2026-04-12 03:26 62.94384 8.09451 11150 ft 299 kts 172°
2026-04-12 03:26 62.92276 8.10153 11488 ft 315 kts 172°
2026-04-12 03:26 62.90049 8.10896 11749 ft 332 kts 171°
2026-04-12 03:27 62.87756 8.11663 12269 ft 340 kts 171°
2026-04-12 03:27 62.85411 8.12449 13013 ft 342 kts 171°
2026-04-12 03:27 62.83040 8.13240 13576 ft 348 kts 171°
2026-04-12 03:27 62.80642 8.14037 14194 ft 352 kts 170°
2026-04-12 03:28 62.78233 8.14838 14850 ft 355 kts 170°
2026-04-12 03:28 62.75793 8.15648 15540 ft 356 kts 170°
2026-04-12 03:28 62.73349 8.16457 16151 ft 359 kts 169°
2026-04-12 03:28 62.70898 8.17269 16682 ft 364 kts 169°
2026-04-12 03:29 62.68380 8.18150 17294 ft 366 kts 167°
2026-04-12 03:29 62.65923 8.19424 17852 ft 368 kts 161°
2026-04-12 03:29 62.63550 8.21569 18385 ft 371 kts 152°
2026-04-12 03:29 62.61315 8.24349 18924 ft 375 kts 148°
2026-04-12 03:30 62.59131 8.27426 19574 ft 376 kts 145°
2026-04-12 03:30 62.56961 8.30664 20073 ft 380 kts 144°
2026-04-12 03:30 62.54802 8.33929 20622 ft 383 kts 144°
2026-04-12 03:30 62.52613 8.37218 21101 ft 387 kts 145°
2026-04-12 03:31 62.50419 8.40479 21678 ft 388 kts 145°
2026-04-12 03:31 62.48178 8.43774 22222 ft 390 kts 145°
2026-04-12 03:31 62.45933 8.47049 22614 ft 396 kts 145°
2026-04-12 03:31 62.43656 8.50353 23170 ft 396 kts 145°
2026-04-12 03:32 62.41349 8.53686 23640 ft 399 kts 145°
2026-04-12 03:32 62.39050 8.56999 24038 ft 404 kts 146°
2026-04-12 03:32 62.36721 8.60348 24492 ft 406 kts 145°
2026-04-12 03:32 62.34357 8.63738 24916 ft 410 kts 146°
2026-04-12 03:33 62.31994 8.67118 25350 ft 412 kts 147°
2026-04-12 03:33 62.29606 8.70526 25848 ft 413 kts 147°
2026-04-12 03:33 62.27237 8.73903 26317 ft 415 kts 147°
2026-04-12 03:33 62.24821 8.77329 26529 ft 422 kts 147°
2026-04-12 03:34 62.22353 8.80827 26982 ft 424 kts 147°
2026-04-12 03:34 62.19909 8.84288 27441 ft 425 kts 147°
2026-04-12 03:34 62.17430 8.87792 27789 ft 428 kts 147°
2026-04-12 03:34 62.14947 8.91297 28005 ft 435 kts 148°
2026-04-12 03:35 62.12419 8.94859 28481 ft 435 kts 148°
2026-04-12 03:35 62.09878 8.98431 28946 ft 435 kts 148°
2026-04-12 03:35 62.07341 9.01991 29339 ft 437 kts 148°
2026-04-12 03:35 62.04774 9.05586 29758 ft 438 kts 148°
2026-04-12 03:36 62.02233 9.09137 30338 ft 435 kts 148°
2026-04-12 03:36 61.99681 9.12697 30769 ft 435 kts 149°
2026-04-12 03:36 61.97156 9.16210 31234 ft 433 kts 149°
2026-04-12 03:36 61.94647 9.19694 31721 ft 430 kts 149°
2026-04-12 03:37 61.92144 9.23162 32137 ft 428 kts 149°
2026-04-12 03:37 61.89698 9.26544 32655 ft 423 kts 148°
2026-04-12 03:37 61.87237 9.29941 33161 ft 419 kts 148°
2026-04-12 03:37 61.84813 9.33285 33681 ft 414 kts 148°
2026-04-12 03:38 61.82408 9.36597 33911 ft 416 kts 148°
2026-04-12 03:38 61.79962 9.39957 34139 ft 418 kts 148°
2026-04-12 03:38 61.77508 9.43321 34461 ft 417 kts 148°
2026-04-12 03:38 61.75075 9.46648 34811 ft 416 kts 148°
2026-04-12 03:39 61.72648 9.49958 35128 ft 414 kts 148°
2026-04-12 03:39 61.70257 9.53212 35372 ft 414 kts 148°
2026-04-12 03:39 61.67825 9.56515 35566 ft 414 kts 148°
2026-04-12 03:39 61.65429 9.59768 35727 ft 415 kts 148°
2026-04-12 03:40 61.63010 9.63044 35932 ft 415 kts 148°
2026-04-12 03:40 61.60571 9.66341 36134 ft 414 kts 149°
2026-04-12 03:40 61.58173 9.69574 36290 ft 415 kts 149°
2026-04-12 03:40 61.55747 9.72840 36471 ft 414 kts 149°
2026-04-12 03:41 61.53310 9.76114 36688 ft 414 kts 149°
2026-04-12 03:41 61.50879 9.79374 36870 ft 415 kts 149°
2026-04-12 03:41 61.48454 9.82620 36998 ft 416 kts 149°
2026-04-12 03:41 61.46017 9.85875 36991 ft 417 kts 149°
2026-04-12 03:42 61.41152 9.92359 36992 ft 414 kts 149°
2026-04-12 03:42 61.36313 9.98783 37000 ft 415 kts 149°
2026-04-12 03:43 61.31397 10.05285 37007 ft 419 kts 149°
2026-04-12 03:43 61.26452 10.11802 37014 ft 422 kts 149°
2026-04-12 03:44 61.21507 10.18295 37027 ft 422 kts 149°
2026-04-12 03:44 61.16697 10.25222 37031 ft 422 kts 144°
2026-04-12 03:45 61.12013 10.32660 37037 ft 427 kts 143°
2026-04-12 03:45 61.07317 10.40119 37047 ft 429 kts 144°
2026-04-12 03:46 61.02539 10.47587 37086 ft 429 kts 144°
2026-04-12 03:46 60.97755 10.54977 37105 ft 431 kts 144°
2026-04-12 03:47 60.92968 10.62318 37092 ft 431 kts 144°
2026-04-12 03:47 60.88132 10.69699 37088 ft 432 kts 145°
2026-04-12 03:48 60.83287 10.77060 37084 ft 434 kts 145°
2026-04-12 03:48 60.78477 10.84341 37092 ft 431 kts 145°
2026-04-12 03:49 60.73647 10.91626 37100 ft 434 kts 145°
2026-04-12 03:49 60.68798 10.98910 37091 ft 432 kts 145°
2026-04-12 03:50 60.63939 11.06180 37094 ft 435 kts 145°
2026-04-12 03:50 60.59065 11.13444 37085 ft 435 kts 145°
2026-04-12 03:51 60.54206 11.20656 37075 ft 435 kts 145°
2026-04-12 03:51 60.49309 11.27896 37080 ft 437 kts 145°
2026-04-12 03:52 60.44397 11.35132 37086 ft 437 kts 145°
2026-04-12 03:52 60.39509 11.42306 37093 ft 438 kts 145°
2026-04-12 03:53 60.34591 11.49500 37107 ft 438 kts 145°
2026-04-12 03:53 60.29636 11.56717 37110 ft 438 kts 145°
2026-04-12 03:54 60.24703 11.63875 37123 ft 439 kts 145°
2026-04-12 03:54 60.19744 11.71043 37110 ft 439 kts 146°
2026-04-12 03:55 60.14801 11.78160 37111 ft 440 kts 146°
2026-04-12 03:55 60.09850 11.85259 37110 ft 441 kts 146°
2026-04-12 03:56 60.04881 11.92360 37101 ft 441 kts 146°
2026-04-12 03:56 59.99892 11.99463 37085 ft 441 kts 146°
2026-04-12 03:57 59.95177 12.06148 37097 ft 442 kts 146°
2026-04-12 03:57 59.90363 12.12950 37100 ft 442 kts 146°
2026-04-12 03:58 59.85284 12.20101 37104 ft 442 kts 146°
2026-04-12 03:58 59.80279 12.27124 37101 ft 443 kts 146°
2026-04-12 03:59 59.75266 12.34133 37113 ft 444 kts 146°
2026-04-12 03:59 59.70209 12.41171 37099 ft 443 kts 146°
2026-04-12 04:00 59.65175 12.48151 37126 ft 445 kts 146°
2026-04-12 04:00 59.60108 12.55155 37125 ft 444 kts 146°
2026-04-12 04:01 59.55033 12.62144 37124 ft 446 kts 146°
2026-04-12 04:01 59.49923 12.69157 37126 ft 447 kts 147°
2026-04-12 04:02 59.42258 12.79625 37152 ft 448 kts 147°
2026-04-12 04:03 59.37178 12.86527 37128 ft 448 kts 147°
2026-04-12 04:03 59.32088 12.93419 37128 ft 449 kts 147°
2026-04-12 04:04 59.26936 13.00368 37143 ft 449 kts 147°
2026-04-12 04:04 59.21821 13.07240 37147 ft 449 kts 147°
2026-04-12 04:05 59.16701 13.14096 37138 ft 450 kts 147°
2026-04-12 04:05 59.11552 13.20964 37160 ft 451 kts 147°
2026-04-12 04:06 59.06368 13.27855 37145 ft 453 kts 147°
2026-04-12 04:06 59.01189 13.34712 37136 ft 452 kts 147°
2026-04-12 04:07 58.95994 13.41566 37139 ft 453 kts 147°
2026-04-12 04:07 58.90786 13.48417 37138 ft 454 kts 147°
2026-04-12 04:08 58.85541 13.55289 37146 ft 456 kts 147°
2026-04-12 04:08 58.80302 13.62121 37143 ft 456 kts 147°
2026-04-12 04:09 58.75033 13.68964 37151 ft 459 kts 148°
2026-04-12 04:09 58.69747 13.75807 37155 ft 459 kts 148°
2026-04-12 04:10 58.64471 13.82610 37149 ft 459 kts 148°
2026-04-12 04:10 58.59139 13.89461 37143 ft 459 kts 148°
2026-04-12 04:11 58.53849 13.96236 37142 ft 461 kts 148°
2026-04-12 04:11 58.48530 14.03024 37144 ft 461 kts 148°
2026-04-12 04:12 58.43189 14.09811 37151 ft 461 kts 148°
2026-04-12 04:12 58.37875 14.16541 37155 ft 461 kts 148°
2026-04-12 04:13 58.32552 14.23257 37150 ft 462 kts 148°
2026-04-12 04:13 58.27186 14.29995 37145 ft 464 kts 148°
2026-04-12 04:14 58.21820 14.36712 37149 ft 465 kts 148°
2026-04-12 04:14 58.16434 14.43432 37141 ft 464 kts 148°
2026-04-12 04:15 58.11065 14.50105 37144 ft 466 kts 148°
2026-04-12 04:15 58.05682 14.56772 37125 ft 465 kts 148°
2026-04-12 04:16 58.00258 14.63467 37135 ft 469 kts 148°
2026-04-12 04:16 57.94797 14.70180 37124 ft 468 kts 148°
2026-04-12 04:17 57.89357 14.76844 37123 ft 469 kts 149°
2026-04-12 04:17 57.83843 14.83566 37130 ft 471 kts 149°
2026-04-12 04:18 57.78391 14.90192 37120 ft 471 kts 149°
2026-04-12 04:18 57.72861 14.96891 37131 ft 473 kts 148°
2026-04-12 04:19 57.67350 15.03544 37140 ft 474 kts 148°
2026-04-12 04:19 57.61829 15.10107 37140 ft 474 kts 150°
2026-04-12 04:20 57.56177 15.16390 37140 ft 474 kts 151°
2026-04-12 04:20 57.50468 15.22586 37144 ft 475 kts 151°
2026-04-12 04:21 57.44784 15.28755 37141 ft 475 kts 150°
2026-04-12 04:21 57.39117 15.34918 37142 ft 476 kts 150°
2026-04-12 04:22 57.33408 15.41122 37145 ft 479 kts 151°
2026-04-12 04:22 57.27666 15.47354 37150 ft 478 kts 151°
2026-04-12 04:23 57.21936 15.53554 37158 ft 479 kts 150°
2026-04-12 04:23 57.16212 15.59724 37157 ft 480 kts 151°
2026-04-12 04:24 57.10455 15.65904 37160 ft 479 kts 152°
2026-04-12 04:24 57.04725 15.72036 37157 ft 481 kts 152°
2026-04-12 04:25 56.98958 15.78186 37158 ft 482 kts 152°
2026-04-12 04:25 56.93184 15.84323 37164 ft 481 kts 151°
2026-04-12 04:26 56.87375 15.90473 37168 ft 483 kts 152°
2026-04-12 04:26 56.81598 15.96564 37177 ft 483 kts 151°
2026-04-12 04:27 56.75774 16.02686 37176 ft 484 kts 151°
2026-04-12 04:27 56.69961 16.08774 37181 ft 484 kts 151°
2026-04-12 04:28 56.64142 16.14844 37181 ft 485 kts 151°
2026-04-12 04:28 56.58331 16.20883 37182 ft 487 kts 151°
2026-04-12 04:29 56.52466 16.26952 37184 ft 488 kts 151°
2026-04-12 04:29 56.46581 16.33026 37183 ft 488 kts 151°
2026-04-12 04:30 56.40715 16.39058 37178 ft 488 kts 151°
2026-04-12 04:30 56.34820 16.45097 37175 ft 489 kts 151°
2026-04-12 04:31 56.28890 16.51153 37176 ft 489 kts 151°
2026-04-12 04:31 56.23010 16.57132 37182 ft 490 kts 151°
2026-04-12 04:32 56.17069 16.63153 37178 ft 492 kts 151°
2026-04-12 04:32 56.11126 16.69158 37180 ft 491 kts 152°
2026-04-12 04:33 56.05213 16.75111 37184 ft 492 kts 152°
2026-04-12 04:33 55.99256 16.81081 37185 ft 493 kts 152°
2026-04-12 04:34 55.93291 16.87042 37185 ft 493 kts 152°
2026-04-12 04:34 55.87305 16.93003 37185 ft 494 kts 152°
2026-04-12 04:35 55.81314 16.98951 37182 ft 496 kts 152°
2026-04-12 04:35 55.75295 17.04899 37186 ft 497 kts 152°
2026-04-12 04:36 55.69285 17.10818 37184 ft 497 kts 151°
2026-04-12 04:36 55.63258 17.16723 37183 ft 497 kts 152°
2026-04-12 04:37 55.57085 17.22107 37190 ft 497 kts 156°
2026-04-12 04:37 55.50775 17.27058 37190 ft 499 kts 157°
2026-04-12 04:38 55.44481 17.31940 37186 ft 497 kts 156°
2026-04-12 04:38 55.38165 17.36898 37182 ft 499 kts 156°
2026-04-12 04:39 55.31869 17.41882 37174 ft 499 kts 156°
2026-04-12 04:39 55.25544 17.46904 37177 ft 500 kts 156°
2026-04-12 04:40 55.19199 17.51930 37176 ft 500 kts 156°
2026-04-12 04:40 55.12864 17.56839 37175 ft 501 kts 156°
2026-04-12 04:41 55.06515 17.61683 37168 ft 499 kts 157°
2026-04-12 04:41 55.00147 17.66520 37171 ft 501 kts 158°
2026-04-12 04:42 54.93780 17.71380 37173 ft 503 kts 157°
2026-04-12 04:42 54.87441 17.76356 37172 ft 501 kts 156°
2026-04-12 04:43 54.77948 17.83868 37167 ft 502 kts 156°
2026-04-12 04:43 54.71567 17.88863 37166 ft 504 kts 156°
2026-04-12 04:44 54.65199 17.93807 37168 ft 503 kts 156°
2026-04-12 04:44 54.58810 17.98741 37165 ft 505 kts 156°
2026-04-12 04:45 54.52416 18.03661 37162 ft 504 kts 156°
2026-04-12 04:45 54.46013 18.08571 37155 ft 506 kts 156°
2026-04-12 04:46 54.39617 18.13462 37152 ft 507 kts 156°
2026-04-12 04:46 54.33195 18.18353 37153 ft 508 kts 156°
2026-04-12 04:47 54.26757 18.23235 37152 ft 508 kts 156°
2026-04-12 04:47 54.20285 18.28088 37152 ft 508 kts 156°
2026-04-12 04:48 54.13854 18.32881 37157 ft 506 kts 156°
2026-04-12 04:48 54.07375 18.37690 37157 ft 510 kts 156°
2026-04-12 04:49 54.00901 18.42483 37157 ft 509 kts 156°
2026-04-12 04:49 53.94437 18.47257 37159 ft 509 kts 156°
2026-04-12 04:50 53.87939 18.52045 37158 ft 509 kts 156°
2026-04-12 04:50 53.81458 18.56803 37161 ft 511 kts 156°
2026-04-12 04:51 53.74977 18.61546 37161 ft 511 kts 156°
2026-04-12 04:51 53.68465 18.66294 37162 ft 511 kts 158°
2026-04-12 04:52 53.61942 18.71029 37165 ft 511 kts 158°
2026-04-12 04:52 53.55434 18.75850 37168 ft 512 kts 155°
2026-04-12 04:53 53.49271 18.81734 37171 ft 513 kts 146°
2026-04-12 04:54 53.40695 18.92406 37169 ft 513 kts 140°
2026-04-12 04:54 53.35156 18.99682 36762 ft 505 kts 141°
2026-04-12 04:54 53.32392 19.03280 36289 ft 501 kts 140°
2026-04-12 04:55 53.29647 19.06824 35728 ft 501 kts 141°
2026-04-12 04:55 53.26860 19.10397 35011 ft 505 kts 141°
2026-04-12 04:55 53.24084 19.13940 34209 ft 510 kts 141°
2026-04-12 04:55 53.21252 19.17538 33344 ft 515 kts 142°
2026-04-12 04:56 53.18410 19.21134 32579 ft 517 kts 142°
2026-04-12 04:56 53.15529 19.24756 31967 ft 516 kts 142°
2026-04-12 04:56 53.12686 19.28317 31331 ft 515 kts 143°
2026-04-12 04:56 53.09846 19.31862 30683 ft 514 kts 142°
2026-04-12 04:57 53.06977 19.35438 30009 ft 514 kts 143°
2026-04-12 04:57 53.04152 19.38951 29348 ft 513 kts 142°
2026-04-12 04:57 53.01293 19.42506 28684 ft 512 kts 142°
2026-04-12 04:57 52.98463 19.46021 28024 ft 511 kts 142°
2026-04-12 04:58 52.95622 19.49546 27343 ft 508 kts 142°
2026-04-12 04:58 52.92842 19.53001 26692 ft 500 kts 142°
2026-04-12 04:58 52.90078 19.56444 26043 ft 491 kts 142°
2026-04-12 04:58 52.87410 19.59767 25408 ft 483 kts 141°
2026-04-12 04:59 52.84762 19.63069 24791 ft 475 kts 141°
2026-04-12 04:59 52.82152 19.66322 24168 ft 467 kts 142°
2026-04-12 04:59 52.79588 19.69515 23565 ft 460 kts 142°
2026-04-12 04:59 52.77061 19.72654 22972 ft 454 kts 142°
2026-04-12 05:00 52.74553 19.75765 22367 ft 448 kts 142°
2026-04-12 05:00 52.72116 19.78874 21767 ft 440 kts 138°
2026-04-12 05:00 52.69933 19.82222 21284 ft 427 kts 129°
2026-04-12 05:00 52.68123 19.86008 21185 ft 412 kts 120°
2026-04-12 05:01 52.66595 19.89954 21184 ft 416 kts 116°
2026-04-12 05:01 52.65144 19.94063 21184 ft 415 kts 114°
2026-04-12 05:01 52.63742 19.98190 21145 ft 416 kts 114°
2026-04-12 05:01 52.62345 20.02325 20738 ft 415 kts 114°
2026-04-12 05:02 52.60936 20.06477 20079 ft 417 kts 114°
2026-04-12 05:02 52.59523 20.10599 19486 ft 417 kts 115°
2026-04-12 05:02 52.58099 20.14720 18896 ft 415 kts 115°
2026-04-12 05:02 52.56671 20.18821 18321 ft 413 kts 115°
2026-04-12 05:03 52.55246 20.22892 17740 ft 411 kts 115°
2026-04-12 05:03 52.53838 20.26901 17178 ft 408 kts 116°
2026-04-12 05:03 52.52440 20.30863 16759 ft 400 kts 116°
2026-04-12 05:03 52.51064 20.34750 16589 ft 386 kts 116°
2026-04-12 05:04 52.49739 20.38510 16247 ft 378 kts 115°
2026-04-12 05:04 52.48436 20.42258 15692 ft 378 kts 115°
2026-04-12 05:04 52.47146 20.45983 15166 ft 375 kts 115°
2026-04-12 05:04 52.45878 20.49639 14711 ft 368 kts 115°
2026-04-12 05:05 52.44634 20.53209 14248 ft 357 kts 115°
2026-04-12 05:05 52.43420 20.56685 13810 ft 346 kts 116°
2026-04-12 05:05 52.42238 20.60059 13395 ft 337 kts 116°
2026-04-12 05:05 52.41100 20.63304 12961 ft 328 kts 116°
2026-04-12 05:06 52.39982 20.66491 12560 ft 318 kts 116°
2026-04-12 05:06 52.38900 20.69570 12173 ft 310 kts 116°
2026-04-12 05:06 52.37835 20.72593 12015 ft 297 kts 116°
2026-04-12 05:06 52.36820 20.75484 12019 ft 299 kts 116°
2026-04-12 05:07 52.35782 20.78441 12021 ft 301 kts 116°
2026-04-12 05:07 52.34742 20.81394 12016 ft 300 kts 116°
2026-04-12 05:07 52.33695 20.84355 11853 ft 301 kts 116°
2026-04-12 05:07 52.32654 20.87286 11512 ft 295 kts 116°
2026-04-12 05:08 52.31623 20.90186 11134 ft 292 kts 117°
2026-04-12 05:08 52.30605 20.93054 10767 ft 290 kts 116°
2026-04-12 05:08 52.29612 20.95854 10399 ft 288 kts 116°
2026-04-12 05:08 52.28603 20.98691 10127 ft 281 kts 117°
2026-04-12 05:09 52.27626 21.01347 9997 ft 272 kts 121°
2026-04-12 05:09 52.26380 21.03671 9597 ft 277 kts 140°
2026-04-12 05:09 52.24733 21.05279 9257 ft 277 kts 150°
2026-04-12 05:09 52.22998 21.06630 8913 ft 276 kts 152°
2026-04-12 05:10 52.21285 21.07975 8568 ft 273 kts 151°
2026-04-12 05:10 52.19582 21.09382 8241 ft 271 kts 150°
2026-04-12 05:10 52.17920 21.10801 7922 ft 269 kts 149°
2026-04-12 05:10 52.16296 21.12202 7750 ft 260 kts 149°
2026-04-12 05:11 52.14716 21.13565 7571 ft 252 kts 149°
2026-04-12 05:11 52.13169 21.14917 7227 ft 251 kts 149°
2026-04-12 05:11 52.11673 21.16232 6965 ft 244 kts 149°
2026-04-12 05:11 52.10199 21.17528 6677 ft 236 kts 149°
2026-04-12 05:12 52.08778 21.18774 6443 ft 230 kts 149°
2026-04-12 05:12 52.07370 21.20005 6184 ft 227 kts 148°
2026-04-12 05:12 52.05997 21.21205 5939 ft 226 kts 148°
2026-04-12 05:12 52.04607 21.22417 5676 ft 225 kts 148°
2026-04-12 05:13 52.03245 21.23603 5422 ft 223 kts 148°
2026-04-12 05:13 52.01875 21.24798 5155 ft 221 kts 148°
2026-04-12 05:13 52.00531 21.25968 5011 ft 220 kts 149°
2026-04-12 05:13 51.99129 21.27183 5015 ft 233 kts 149°
2026-04-12 05:14 51.97673 21.28437 5012 ft 235 kts 149°
2026-04-12 05:14 51.96231 21.29675 4891 ft 236 kts 149°
2026-04-12 05:14 51.94794 21.30908 4723 ft 234 kts 149°
2026-04-12 05:14 51.93353 21.32146 4561 ft 234 kts 149°
2026-04-12 05:15 51.91904 21.33301 4406 ft 235 kts 155°
2026-04-12 05:15 51.90287 21.33752 4247 ft 239 kts 184°
2026-04-12 05:15 51.88741 21.32807 4092 ft 240 kts 215°
2026-04-12 05:15 51.87575 21.30929 3965 ft 232 kts 234°
2026-04-12 05:16 51.86779 21.28743 3828 ft 221 kts 248°
2026-04-12 05:16 51.86514 21.26403 3692 ft 208 kts 276°
2026-04-12 05:16 51.86814 21.24212 3568 ft 196 kts 292°
2026-04-12 05:16 51.87466 21.22332 3433 ft 190 kts 317°
2026-04-12 05:17 51.88533 21.21099 3321 ft 188 kts 333°
2026-04-12 05:17 51.89666 21.20053 3191 ft 188 kts 333°
2026-04-12 05:17 51.90807 21.19014 3065 ft 188 kts 334°
2026-04-12 05:17 51.91943 21.18020 3022 ft 182 kts 335°
2026-04-12 05:18 51.93055 21.17061 3029 ft 183 kts 335°
2026-04-12 05:18 51.94167 21.16105 3020 ft 181 kts 335°
2026-04-12 05:18 51.95279 21.15144 3017 ft 181 kts 335°
2026-04-12 05:18 51.96388 21.14186 3015 ft 181 kts 335°
2026-04-12 05:19 51.97498 21.13230 3010 ft 181 kts 335°
2026-04-12 05:19 51.98612 21.12270 3013 ft 182 kts 335°
2026-04-12 05:19 51.99737 21.11300 3018 ft 184 kts 335°
2026-04-12 05:19 52.00890 21.10307 3017 ft 186 kts 334°
2026-04-12 05:20 52.02025 21.09322 3012 ft 186 kts 334°
2026-04-12 05:20 52.03173 21.08328 3010 ft 186 kts 335°
2026-04-12 05:20 52.04286 21.07364 2966 ft 177 kts 335°
2026-04-12 05:20 52.05335 21.06454 2743 ft 165 kts 335°
2026-04-12 05:21 52.06324 21.05598 2523 ft 160 kts 335°
2026-04-12 05:21 52.07312 21.04745 2282 ft 160 kts 335°
2026-04-12 05:21 52.08281 21.03905 2053 ft 155 kts 334°
2026-04-12 05:21 52.09221 21.03086 1845 ft 151 kts 334°
2026-04-12 05:22 52.10134 21.02293 1627 ft 146 kts 334°
2026-04-12 05:22 52.11032 21.01518 1423 ft 142 kts 334°
2026-04-12 05:22 52.11888 21.00774 1217 ft 140 kts 333°
2026-04-12 05:22 52.12756 21.00021 1017 ft 140 kts 333°
2026-04-12 05:23 52.13613 20.99277 818 ft 140 kts 333°
2026-04-12 05:23 52.14482 20.98523 618 ft 140 kts 332°
2026-04-12 05:23 52.15340 20.97781 429 ft 140 kts 332°
2026-04-12 05:23 52.16167 20.97077 336 ft 123 kts 329°
2026-04-12 05:24 52.16719 20.96589 329 ft 50 kts 333°
2026-04-12 05:24 52.16944 20.96516 331 ft 12 kts
2026-04-12 05:24 52.16998 20.96518 332 ft 4 kts
2026-04-12 05:24 52.17007 20.96518 332 ft 0 kts
2026-04-12 05:25 52.17026 20.96519 332 ft 8 kts 360°
2026-04-12 05:25 52.17089 20.96574 331 ft 13 kts 58°
2026-04-12 05:25 52.17133 20.96706 331 ft 12 kts 62°
2026-04-12 05:25 52.17149 20.96837 332 ft 13 kts 124°
2026-04-12 05:26 52.17069 20.96922 332 ft 16 kts 151°
2026-04-12 05:26 52.16957 20.97022 332 ft 17 kts 151°
2026-04-12 05:26 52.16906 20.97069 333 ft 6 kts 136°
2026-04-12 05:26 52.16899 20.97133 335 ft 4 kts 81°
2026-04-12 05:27 52.16906 20.97179 337 ft 5 kts 77°
2026-04-12 05:27 52.16912 20.97221 338 ft 0 kts 76°